Change the Weather History Date:

Friday, November 9, 2012

  Actual Average Record
Temperature  
Mean Temperature 28 °F 19 °F  
Max Temperature 31 °F 25 °F 49 °F (1926)
Min Temperature 24 °F 13 °F -17 °F (1975)
Degree Days  
Heating Degree Days 37 46  
Month to date heating degree days 408 402  
Since 1 July heating degree days 3120 3057  
Cooling Degree Days 0    
Month to date cooling degree days 0  
Year to date cooling degree days 0  
Moisture  
Dew Point 21 °F    
Average Humidity 0    
Maximum Humidity 0    
Minimum Humidity 0    
Precipitation  
Precipitation 0.00 in 0.04 in 1.30 in (1913)
Month to date precipitation 0.02 0.39  
Year to date precipitation 18.13 14.90  
Snow  
Snow 0.00 in 0.40 in 11.00 in (1913)
Month to date snowfall 0.2 3.4  
Since 1 July snowfall 2.6 8.6  
Since 1 September snowfall 2.6 8.6  
Snow Depth 1.00 in    
Sea Level Pressure  
Sea Level Pressure 29.72 in    
Wind  
Wind Speed 8 mph (NE)    
Max Wind Speed 17 mph    
Max Gust Speed 22 mph    
Visibility 10 miles    
Events      
T = Trace of Precipitation, MM = Missing Value Source: NWS Daily Summary

Daily Weather History Graph

Daily Weather History Graph

Search for Another Location

Airport or City:

Trip Planner

Search our weather history database for the weather conditions in past years. The results will help you decide how hot, cold, wet, or windy it might be!

Date:

Astronomy

Nov. 09, 2012 Rise Set
Actual Time 10:16 AM AKST 5:13 PM AKST
Civil Twilight 9:17 AM AKST 6:12 PM AKST
Nautical Twilight 8:17 AM AKST 7:12 PM AKST
Astronomical Twilight 7:21 AM AKST 8:08 PM AKST
Moon 3:52 AM AKST (11/9) 3:58 PM AKST (11/9)
Length of Visible Light 8h 54m
Length of Day
6h 57m
Waning Crescent, 22% of the Moon is Illuminated
Nov 9
Waning Crescent
Nov 13
New
Nov 20
First Quarter
Nov 28
Full
Dec 6
Last Quarter

Hourly Weather History & Observations

Time (AKST) Temp. Windchill Dew Point Humidity Pressure Visibility Wind Dir Wind Speed Gust Speed Precip Events Conditions
12:53 AM 26.1 °F 20.5 °F 16.0 °F 66% 29.89 in 10.0 mi ENE 4.6 mph - N/A   Overcast
1:53 AM 28.0 °F 21.7 °F 16.0 °F 61% 29.88 in 10.0 mi NE 5.8 mph - N/A   Overcast
3:53 AM 27.0 °F - 17.1 °F 66% 29.85 in 10.0 mi Calm Calm - N/A   Overcast
4:53 AM 28.0 °F 20.0 °F 17.1 °F 63% 29.83 in 10.0 mi ENE 8.1 mph - N/A   Overcast
5:21 AM 24.8 °F 17.9 °F 17.6 °F 74% 29.82 in 10.0 mi NNE 5.8 mph - N/A   Mostly Cloudy
5:53 AM 27.0 °F 18.7 °F 17.1 °F 66% 29.81 in 10.0 mi ENE 8.1 mph - N/A   Overcast
6:53 AM 27.0 °F 18.7 °F 17.1 °F 66% 29.79 in 10.0 mi ENE 8.1 mph - N/A   Overcast
7:03 AM 26.6 °F 19.1 °F 17.6 °F 69% 29.78 in 10.0 mi NE 6.9 mph - N/A   Overcast
7:53 AM 25.0 °F 17.1 °F 17.1 °F 72% 29.77 in 10.0 mi NE 6.9 mph - N/A   Overcast
8:25 AM 24.8 °F 14.6 °F 17.6 °F 74% 29.76 in 10.0 mi NE 10.4 mph - N/A   Overcast
8:53 AM 25.0 °F 14.2 °F 17.1 °F 72% 29.75 in 10.0 mi NE 11.5 mph - N/A   Overcast
9:53 AM 27.0 °F 16.7 °F 19.0 °F 72% 29.75 in 10.0 mi NNE 11.5 mph - N/A   Overcast
10:53 AM 28.0 °F 19.3 °F 19.9 °F 72% 29.73 in 10.0 mi NNE 9.2 mph - N/A   Overcast
11:53 AM 28.0 °F 17.5 °F 19.9 °F 72% 29.72 in 10.0 mi NE 12.7 mph - N/A   Overcast
12:53 PM 28.9 °F 17.7 °F 21.9 °F 75% 29.70 in 10.0 mi NNE 15.0 mph - N/A   Overcast
1:53 PM 28.9 °F 20.4 °F 21.9 °F 75% 29.70 in 10.0 mi NNE 9.2 mph - N/A   Overcast
2:22 PM 28.4 °F 19.1 °F 21.2 °F 74% 29.68 in 10.0 mi NNE 10.4 mph - N/A   Overcast
2:53 PM 28.9 °F 17.7 °F 21.9 °F 75% 29.68 in 10.0 mi NE 15.0 mph - N/A   Overcast
3:53 PM 28.9 °F 18.6 °F 21.9 °F 75% 29.67 in 10.0 mi NE 12.7 mph - N/A   Overcast
4:53 PM 30.0 °F 20.5 °F 24.1 °F 79% 29.66 in 10.0 mi NE 11.5 mph - N/A   Overcast
5:53 PM 30.0 °F 22.4 °F 24.1 °F 79% 29.65 in 10.0 mi ENE 8.1 mph - N/A   Overcast
6:00 PM 30.2 °F 22.6 °F 24.8 °F 80% 29.64 in 10.0 mi ENE 8.1 mph - N/A   Overcast
6:48 PM 30.2 °F 21.9 °F 24.8 °F 80% 29.65 in 10.0 mi NE 9.2 mph - N/A   Overcast
6:53 PM 30.0 °F 21.1 °F 24.1 °F 79% 29.65 in 10.0 mi NE 10.4 mph - N/A   Overcast
7:09 PM 30.2 °F 22.6 °F 24.8 °F 80% 29.65 in 10.0 mi NE 8.1 mph - N/A   Overcast
7:53 PM 28.9 °F 21.9 °F 24.1 °F 82% 29.67 in 10.0 mi NE 6.9 mph - N/A   Scattered Clouds
8:53 PM 30.0 °F - 25.0 °F 82% 29.66 in 10.0 mi Calm Calm - N/A   Overcast
9:53 PM 28.9 °F - 25.0 °F 85% 29.65 in 10.0 mi Calm Calm - N/A   Overcast
10:00 PM 28.4 °F - 24.8 °F 86% 29.65 in 10.0 mi Calm Calm - N/A   Overcast
10:53 PM 28.9 °F 23.9 °F 24.1 °F 82% 29.66 in 10.0 mi West 4.6 mph - N/A   Overcast
11:53 PM 28.9 °F - 24.1 °F 82% 29.66 in 10.0 mi Calm Calm - N/A   Overcast